Terug naar catalogus

CZ-6A DEB

ActiefPO
NORAD 54888·DEBRIS·🇨🇳 China

Gelanceerd Nov 11, 2022 vanaf Taiyuan Satellite Launch Center

Loading…

Volgende Passages (komende 24 uur)

TLE

VersSource: Space-Track

Epoch: Sep 14, 2026, 06:53 UTC

1 54888U 22151PZ  26257.28698063  .00028954  00000-0  20080-2 0  9998
2 54888  98.6360   7.8468 0054139 229.0880 130.5648 15.04357615205170

Volg CZ-6A DEB in realtime met AllMySat

Download on the App Store